www.pogodaiklimat.ru

Погода и климат >> Архив погоды >> Таиланд >> Тха Тум


ПОГОДА в Тха Тум

  • Прогноз погоды в Тха Тум
  • Монитор погоды в Тха Тум

АРХИВ ПОГОДЫ в Тха Тум

Время (UTC), дата Ветер
(напр.,м/с)
 
Видим.   Явления Облачность Т
(С)
Тd
(С)
f
(%)
Тe
(С)
Тes
(С)
Комфортность P
(гПа)
Po
(гПа)
Тmin
(С)
Tmax
(С)
R
(мм)
R24
(мм)
S
(см)
21 16.07 штиль 0 8000 м дымка 3/0
[Cs]
+26.5 +24.3 88 +37 +37 очень
душно
1003.9 989.2
00 17.07 В 2 9000 м дымка 3/1 600 м
[Cu hum Ac As Cs]
+27.6 +24.6 84 +39 +41 очень
душно
1004.5 989.8 +25.9
03 17.07 В 2 9000 м дымка 3/1 600 м
[Cu hum Ac As Cs]
+28.9 +24.8 79 +41 +55 опасность
перегрева
1003.9 989.4
06 17.07 В 3 9000 м мгла 3/1 600 м
[Cu hum Ac As Cs]
+31.7 +24.1 64 +44 +57 опасность
перегрева
1003.3 988.9
09 17.07 В 3 9000 м дымка 3/1 600 м
[Cu hum Ac As Cs]
+32.4 +26.1 69 +48 +53 опасность
перегрева
1003.0 988.6
12 17.07 штиль 0 9000 м дымка 3/1 600 м
[Cu hum Ac As Cs]
+32.0 +27.7 78 +52 +52 опасность
перегрева
1003.6 989.2 +32.6
15 17.07 В 3 9000 м дымка 3/1 600 м
[Sc Ac As Cs]
+30.9 +26.7 78 +48 +48 опасность
перегрева
1003.8 989.4
18 17.07 штиль 0 8000 м дымка 3/1 600 м
[Cu hum Ac As Cs]
+29.0 +24.9 79 +42 +42 опасность
перегрева
1004.1 989.5
21 17.07 штиль 0 8000 м дымка 3/1 600 м
[Cu hum Ac As Cs]
+27.1 +24.1 84 +38 +38 очень
душно
1004.2 989.5
00 18.07 штиль 0 8000 м дымка 3/0
[Cs]
+26.2 +24.5 90 +37 +39 очень
душно
1004.9 990.3 +25.3
03 18.07 штиль 0 10 км 3/1 600 м
[Cu hum Cs]
+32.5 +23.9 61 +44 +64 опасность
перегрева
1004.7 990.3
06 18.07 штиль 0 10 км 3/3 600 м
[Cu hum Cs]
+34.8 +24.0 54 +47 +67 опасность
перегрева
1002.8 988.5
09 18.07 штиль 0 10 км 3/3 600 м
[Cu hum Cs]
+35.0 +23.6 52 +46 +53 опасность
перегрева
1000.8 986.6
12 18.07 штиль 0 10 км 3/1 600 м
[Cb calv Cs]
+33.0 +26.0 67 +49 +49 опасность
перегрева
1002.3 988.0 +36.1
15 18.07 штиль 0 10 км 3/0
[Cs]
+30.6 +24.8 71 +43 +43 опасность
перегрева
1004.2 989.7
18 18.07 штиль 0 10 км 3/0
[Cs]
+29.6 +25.9 81 +44 +44 опасность
перегрева
1003.7 989.1
21 18.07 штиль 0 10 км 3/0
[Cs]
+27.5 +25.4 88 +40 +40 очень
душно
1002.9 988.3
00 19.07 штиль 0 8000 м дымка 3/0
[Cs]
+26.5 +23.1 82 +36 +38 очень
душно
1004.6 989.9 +25.7
03 19.07 штиль 0 8000 м дымка 3/0
[Cs]
+31.0 +24.1 67 +43 +64 опасность
перегрева
1006.0 991.5
06 19.07 штиль 0 8000 м мгла 3/0
[Cs]
+33.5 +23.8 57 +45 +71 опасность
перегрева
1004.3 989.9
09 19.07 Ю 2 8000 м мгла 3/0
[Cs]
+34.5 +19.0 40 +39 +46 очень
душно
1001.6 987.4
12 19.07 штиль 0 8000 м мгла 3/0
[Cs]
+30.8 +21.1 56 +38 +38 очень
душно
1003.0 988.5 +34.8
15 19.07 штиль 0 8000 м дымка 3/0
[Cs]
+28.5 +23.1 73 +38 +38 очень
душно
1005.4 990.8
18 19.07 штиль 0 8000 м дымка 3/0
[Cs]
+27.5 +23.1 77 +37 +37 очень
душно
1005.2 990.5
21 19.07 штиль 0 8000 м дымка 3/0
[Cs]
+26.0 +23.1 84 +35 +35 очень
душно
1004.8 990.1
00 20.07 штиль 0 8000 м дымка 3/0
[Cs]
+26.2 +24.8 92 +37 +40 очень
душно
1006.6 991.9 +25.2
03 20.07 штиль 0 10 км 3/0
[Cs]
+32.2 +24.5 64 +45 +66 опасность
перегрева
1007.3 992.8
06 20.07 штиль 0 10 км 4/3 600 м
[Cu med, cong Cs]
+35.6 +24.6 53 +48 +67 опасность
перегрева
1005.0 990.7
09 20.07 штиль 0 10 км 4/3 600 м
[Cu hum Cs]
+36.0 +23.1 47 +46 +52 опасность
перегрева
1002.6 988.4
12 20.07 штиль 0 8000 м мгла 3/0
[Cs]
+30.8 +21.1 56 +38 +38 очень
душно
1003.0 988.5 +34.8
15 20.07 штиль 0 10 км дымка 3/0
[Cs]
+29.2 +24.6 76 +41 +41 опасность
перегрева
1007.1 992.6
18 20.07 штиль 0 8000 м дымка 3/0
[Cs]
+27.6 +24.6 84 +39 +39 очень
душно
1007.0 992.3
21 20.07 штиль 0 8000 м дымка 3/0
[Cs]
+27.2 +24.3 84 +38 +38 очень
душно
1006.0 991.4
00 21.07 В 3 9000 м дымка 3/1 600 м
[Cu med, cong Ac As Cs]
+27.0 +24.0 84 +37 +39 очень
душно
1006.4 991.7 +27.0
03 21.07 В 2 9000 м дымка 3/1 600 м
[Cu hum Ac As Cs]
+31.2 +26.6 77 +48 +61 опасность
перегрева
1006.2 991.7
06 21.07 В 2 9000 м дымка 3/1 600 м
[Cu hum Ac As Cs]
+32.1 +24.9 66 +46 +62 опасность
перегрева
1005.8 991.4
09 21.07 штиль 0 9000 м дымка 3/1 600 м
[Cu med, cong Ac As Cs]
+33.2 +27.3 71 +52 +59 опасность
перегрева
1006.0 991.6
12 21.07 штиль 0 9000 м дымка 4/1 600 м
[Cu hum Ac As Cs]
+31.6 +27.2 78 +50 +50 опасность
перегрева
1006.3 991.9 +32.8
15 21.07 В 2 7000 м слаб. дождь 8/4 600 м
[Cu hum Ac As Cs]
+27.9 +26.1 90 +42 +42 опасность
перегрева
1006.6 991.9 5
18 21.07 штиль 0 8000 м дымка {дождь} 8/3 600 м
[Cu hum Ac As Cs]
+27.0 +24.7 87 +38 +38 очень
душно
1007.2 992.5 5
21 21.07 штиль 0 8000 м дымка 6/3 600 м
[Cu hum Ac As Cs]
+26.4 +23.2 83 +36 +36 очень
душно
1007.2 992.5
00 22.07 штиль 0 8000 м дымка 4/0
[Ci fib]
+26.5 +24.3 88 +37 +40 очень
душно
1008.3 993.6 +25.5
03 22.07 штиль 0 8000 м дымка 4/0
[Cs]
+30.0 +22.7 65 +40 +60 опасность
солнечного
удара
1009.0 994.4
06 22.07 штиль 0 8000 м мгла 3/3 600 м
[Cu hum Cs]
+32.0 +22.0 56 +41 +61 опасность
перегрева
1007.5 993.0
09 22.07 штиль 0 8000 м мгла 4/0
[Cs]
+33.5 +21.2 49 +41 +50 опасность
перегрева
1004.7 990.3
12 22.07 штиль 0 8000 м слаб. дождь 10/0
[Cs]
+25.5 +23.3 88 +34 +34 очень
душно
1007.3 992.5 +34.2 4
15 22.07 штиль 0 8000 м дымка 3/0
[Cs]
+24.8 +22.9 89 +33 +33 очень
душно
1007.9 993.1
18 22.07 штиль 0 8000 м дымка 3/0
[Cs]
+24.0 +22.5 91 +31 +31 очень
душно
1007.3 992.4
21 22.07 штиль 0 8000 м дымка 3/0
[Cs]
+25.0 +23.5 91 +34 +34 очень
душно
1006.1 991.3
00 23.07 В 2 9000 м дымка 3/1 600 м
[Cu hum Ac As Cs]
+26.7 +24.2 86 +37 +39 очень
душно
1005.8 991.2 +23.9
03 23.07 штиль 0 9000 м дымка 3/1 600 м
[Cu hum Ac As Cs]
+28.3 +25.0 82 +41 +59 опасность
перегрева
1005.5 990.9
06 23.07 штиль 0 9000 м дымка 3/1 600 м
[Cu hum Ac As Cs]
+30.4 +28.2 88 +51 +73 опасность
перегрева
1005.5 991.0
09 23.07 В 2 9000 м дымка 4/1 600 м
[Cu med, cong Ac As Cs]
+31.9 +25.7 70 +47 +52 опасность
перегрева
1005.1 990.6
12 23.07 В 4 9000 м дымка 3/1 600 м
[Cu hum Ac As Cs]
+31.8 +26.5 74 +49 +49 опасность
перегрева
1004.9 990.5 +32.3
15 23.07 В 2 8000 м дымка 3/1 600 м
[Cu hum Ac As Cs]
+29.2 +26.1 83 +44 +44 опасность
перегрева
1005.2 990.7
18 23.07 штиль 0 8000 м дымка 4/1 600 м
[Cu med, cong Ac As Cs]
+27.7 +24.8 84 +39 +39 очень
душно
1005.5 990.9

 

Местоположение метеостанции Тха Тум (Таиланд): широта 15.32 долгота 103.68 высота над уровнем моря 129 м.

В архиве по умолчанию представлена погода в Тха Тум за последнюю неделю. Архивные данные за месяц целиком и за предыдущие месяцы, начиная с января 2011 года, Вы можете получить, выбрав интересующий диапазон дат из раскрывающегося списка и нажав кнопку "Ввод!".


*Определитесь, кто Вы:
робот инопланетянин человек

Внимание! Время в таблицах - всемирное. Для получения местного времени необходимо прибавить поправку, которая равна 7 ч.

Смотрите также архив погоды в соседних городах и на ближайших метеорологических станциях:

Погода в Бури-Рам (Таиланд) (47 км)
Погода в Сурине (Таиланд) (53 км)
Погода в Сурин Агромете (Таиланд) (55 км)
Погода в Си Сакет Агромете (Таиланд) (69 км)
Погода в Рой Эт (Таиланд) (81 км)
Погода в Рой Эт Агромете (Таиланд) (84 км)
Погода в Камаласаи (Таиланд) (113 км)
Погода в Косумпхисаи (Таиланд) (121 км)
Погода в Нанг Ронг (Таиланд) (125 км)
Погода в Убонратчатхани (Таиланд) (127 км)

Пояснения к столбцам:

Ветер - указаны скорость ветра в м/с - средняя за 10 мин, порывы в срок и между сроками (в фигурных скобках) и направление, откуда дует ветер: С - северный, СВ - северо-восточный, В - восточный, ЮВ - юго-восточный, Ю - южный, ЮЗ - юго-западный, З - западный, СЗ - северо-западный.
Видимость - горизонтальная дальность видимости в метрах или километрах. При видимости от 1 до 10 км при отсутствии осадков обычно наблюдается дымка, при ухудшении видимости до 1 км и менее - туман. В сухую погоду видимость может ухудшаться дымом, пылью или мглою.
Явления - указаны атмосферные явления, наблюдавшиеся в срок или в последний час перед сроком; фигурными скобками обозначены явления, наблюдавшиеся между сроками (за 1-3 часа до срока); квадратными скобками обозначены град или гололедные отложения с указанием их диаметра в мм.
Облачность - указаны через наклонную черту общая и нижняя облачность в баллах и высота нижней границы облаков в метрах; квадратными скобками обозначены формы облаков: Ci - перистые, Cs - перисто-слоистые, Cc - перисто-кучевые, Ac - высококучевые, As - высокослоистые, Sc - слоисто-кучевые, Ns - слоисто-дождевые, Cu - кучевые, Cb - кучево-дождевые. Подробнее классификацию облаков см. в Атласе облаков (PDF).
T - Температура воздуха - температура, измеренная на высоте 2 м над землей.
Td - Температура точки росы - температура, при понижении до которой содержащийся в воздухе водяной пар достигнет насыщения.
f - Относительная влажность воздуха - влажноcть воздуха, измеренная на высоте 2 м над землей.
Te - Эффективная температура - температура, которую ощущает одетый по сезону человек в тени. Характеристика душности погоды. При расчете учитывается влияние влажности воздуха и скорости ветра на теплоощущения человека.
Tes - Эффективная температура на солнце - температура, которую ощущает человек, с поправкой на солнечный нагрев. Характеристика знойности погоды. Зависит от высоты солнца над горизонтом, облачности и скорости ветра. Ночью, в пасмурную погоду, а также при ветре 12 м/с и более поправка равна нулю.
P - Атмосферное давление - приведенное к уровню моря атмосферное давление.
Po - Атмосферное давление - измеренное на уровне метеостанции атмосферное давление.
Tmin - Минимальная температура - минимум температуры воздуха на высоте 2 м над землей.
Tmax - Максимальная температура - максимум температуры воздуха на высоте 2 м над землей.
R - Количество осадков - Количество выпавших осадков за период времени, мм. При наведении курсора мыши на число - период времени, за который выпало указанное количество осадков.
R24 - Количество осадков - Количество выпавших осадков за 24 часа, мм.
S - Снежный покров - Высота снежного покрова, см. При наведении курсора мыши на число - состояние снежного покрова и степень покрытия местности в баллах.